Home   Weather   South Melbourne beach   Past weeks
Flag for Australia

Past Weather in South Melbourne beach, Victoria, Australia — Yesterday and Last 2 Weeks

Now
55 °F

Broken clouds.


Feels Like: 50 °F
Forecast: 58 / 49 °F
Wind: 26 mph from West

Location: Melbourne Airport

Current Time: May 27, 2019 at 1:48:22 pm

Latest Report: May 27, 2019 at 1:22 pm


Visibility: N/A

Pressure: 29.80 "Hg

Humidity: 55%

Dew Point: 39 °F

Location of South Melbourne beachLocation

Past Weather in South Melbourne beach — Graph

°F

South Melbourne beach Temperature Yesterday

Maximum temperature yesterday: 57 °F (at 1:00 pm)
Minimum temperature yesterday: 46 °F (at 4:30 am)
Average temperature yesterday: 52 °F

High & Low Weather Summary for the Past Weeks

 TemperatureHumidityPressure
High72 °F (May 18, 3:00 pm)100% (May 18, 2:30 am)30.48 "Hg (May 18, 2:30 am)
Low41 °F (May 18, 2:30 am)27% (May 18, 2:00 pm)29.71 "Hg (May 27, 12:00 am)
Average56 °F69%30.20 "Hg
* Reported May 12 12:00 pm — May 27 12:31 pm, South Melbourne beach. Weather by CustomWeather, © 2019

Note: Actual official high and low records may vary slightly from our data, if they occured in-between our weather recording intervals... More about our weather records

Advertising

South Melbourne beach Weather History for the Previous 24 Hours

Scroll right to see more
 ConditionsComfort  
Time TempWeatherWind HumidityBarometerVisibility
12:31 pm
Mon, May 27
54 °FScattered clouds.25 mph58%29.77 "HgN/A
12:03 pm52 °FPassing clouds.29 mph62%29.77 "HgN/A
11:52 am52 °FScattered clouds.29 mph62%29.77 "HgN/A
11:22 am50 °FPartly sunny.26 mph67%29.77 "HgN/A
11:00 am48 °FBroken clouds.28 mph71%29.80 "HgN/A
10:00 am45 °FSprinkles. Broken clouds.28 mph76%29.80 "HgN/A
9:30 am46 °FBroken clouds.25 mph66%29.77 "HgN/A
9:00 am45 °FPartly sunny.23 mph71%29.77 "HgN/A
8:43 am46 °FPartly sunny.23 mph66%29.77 "HgN/A
8:30 am45 °FPartly sunny.20 mph71%29.77 "HgN/A
8:00 am45 °FScattered clouds.20 mph71%29.77 "HgN/A
7:30 am43 °FScattered clouds.18 mph71%29.74 "HgN/A
7:00 am43 °FPassing clouds.17 mph71%29.74 "HgN/A
6:30 am45 °FPassing clouds.21 mph66%29.71 "HgN/A
6:00 am45 °FPassing clouds.20 mph66%29.71 "HgN/A
5:30 am45 °FPassing clouds.17 mph71%29.71 "HgN/A
5:00 am45 °FPassing clouds.10 mph76%29.71 "HgN/A
4:30 am45 °FPassing clouds.17 mph71%29.71 "HgN/A
4:00 am46 °FPartly cloudy.13 mph71%29.71 "HgN/A
3:30 am46 °FPassing clouds.13 mph71%29.71 "HgN/A
3:00 am46 °FClear.12 mph76%29.71 "Hg10 mi
2:30 am46 °FPassing clouds.16 mph71%29.71 "HgN/A
2:00 am46 °FPassing clouds.17 mph71%29.71 "HgN/A
1:30 am48 °FPartly cloudy.9 mph71%29.71 "HgN/A
1:00 am48 °FClear.12 mph71%29.74 "Hg10 mi
12:30 am50 °FClear.15 mph71%29.74 "Hg10 mi
12:00 am48 °FClear.10 mph76%29.71 "Hg10 mi
11:00 pm
Sun, May 26
48 °FClear.10 mph82%29.74 "Hg10 mi
10:00 pm48 °FLight rain. Partly cloudy.14 mph87%29.77 "HgN/A
9:40 pm48 °FLight rain. Partly cloudy.18 mph87%29.77 "Hg6 mi
9:16 pm48 °FRain. Partly cloudy.29 mph87%29.77 "Hg4 mi
9:00 pm54 °FLight rain. Passing clouds.16 mph77%29.74 "Hg6 mi
8:30 pm54 °FPartly cloudy.17 mph77%29.74 "HgN/A
8:00 pm54 °FPassing clouds.15 mph72%29.74 "HgN/A
7:30 pm54 °FPassing clouds.17 mph72%29.74 "HgN/A
7:00 pm54 °FPassing clouds.20 mph72%29.74 "HgN/A
6:30 pm54 °FPartly cloudy.23 mph77%29.74 "HgN/A
6:00 pm54 °FPassing clouds.23 mph72%29.77 "HgN/A
5:00 pm54 °FBroken clouds.22 mph72%29.77 "HgN/A
4:30 pm55 °FBroken clouds.22 mph67%29.80 "HgN/A
4:00 pm55 °FBroken clouds.22 mph63%29.80 "HgN/A
3:30 pm55 °FBroken clouds.22 mph63%29.83 "HgN/A
3:00 pm57 °FBroken clouds.18 mph55%29.83 "HgN/A
2:30 pm57 °FBroken clouds.16 mph51%29.83 "HgN/A
2:00 pm57 °FBroken clouds.18 mph51%29.86 "HgN/A
1:30 pm57 °FBroken clouds.16 mph48%29.86 "HgN/A
1:00 pm57 °FBroken clouds.13 mph48%29.89 "HgN/A
Weather by CustomWeather, © 2019

See weather overview